Location: Berduj
(43.0019°N, 22.3781°E)
Time: 19:58:40
(UTC+00:00)

BREEZE M DEB (TANK) - Pass Details

Date: 19 October 2019
Orbit: 281 x 14540 km, 49.5° (Epoch: 17 November)

Event Time Altitude Azimuth Distance (km) Brightness Sun altitude
Rises 18:32:22 0° 289° (WNW) 2,408 6.7 -31.6°
Reaches altitude 10° 18:33:48 10° 279° (W) 1,822 5.8 -31.9°
Enters shadow 18:36:35 37° 228° (SW) 1,303 4.3 -32.4°
